When you browse on this site, cookies collect data to enhance your experience and personalize the content and advertising you see.
Visit our Privacy Policy to learn more. By continuing to use the site, you agree to this use of cookies and data.
  • In Hungary
  • List of Countries
  • For 7 days
  • Water Temperature
  • Weather Map
  • News
  • Weather Widgets
  • user-avatar
    Login

    Hourly Weather Bashirovo

    Today, 1 June, Monday

    Time Temperature Precipitation Wind Pressure Humidity
    00:00 +17°C° 0 mm 4 mps 744 mmHg 73%
    01:00 +15°C° 0 mm 4 mps 744 mmHg 75%
    02:00 +15°C° 0 mm 4 mps 744 mmHg 78%
    03:00 +14°C° 0 mm 3 mps 744 mmHg 80%
    04:00 +13°C° 0 mm 3 mps 744 mmHg 82%
    05:00 +14°C° 0 mm 4 mps 744 mmHg 80%
    06:00 +15°C° 0 mm 4 mps 744 mmHg 77%
    07:00 +16°C° 0 mm 5 mps 745 mmHg 74%
    08:00 +17°C° 0 mm 5 mps 745 mmHg 68%
    09:00 +20°C° 0 mm 5 mps 745 mmHg 62%
    10:00 +21°C° 0 mm 6 mps 746 mmHg 55%
    11:00 +22°C° 0 mm 6 mps 746 mmHg 52%
    12:00 +22°C° 0 mm 5 mps 746 mmHg 50%
    13:00 +23°C° 0 mm 5 mps 746 mmHg 47%
    14:00 +23°C° 0 mm 5 mps 746 mmHg 47%
    15:00 +23°C° 0 mm 5 mps 746 mmHg 47%
    16:00 +23°C° 0 mm 5 mps 746 mmHg 47%
    17:00 +23°C° 0 mm 4 mps 746 mmHg 51%
    18:00 +22°C° 0 mm 3 mps 745 mmHg 55%
    19:00 +23°C° 0 mm 2 mps 745 mmHg 59%
    20:00 +21°C° 0 mm 2 mps 746 mmHg 62%
    21:00 +20°C° 0 mm 1 mps 746 mmHg 65%
    22:00 +19°C° 0 mm 1 mps 746 mmHg 68%
    23:00 +18°C° 0 mm 1 mps 746 mmHg 70%

    Tomorrow, 2 June, Tuesday

    Time Temperature Precipitation Wind Pressure Humidity
    00:00 +18°C° 0 mm 1 mps 746 mmHg 73%
    01:00 +15°C° 0 mm 0 mps 746 mmHg 75%
    02:00 +15°C° 0 mm 0 mps 746 mmHg 76%
    03:00 +15°C° 0 mm 1 mps 746 mmHg 78%
    04:00 +15°C° 0 mm 1 mps 746 mmHg 79%
    05:00 +16°C° 0 mm 1 mps 746 mmHg 76%
    06:00 +18°C° 0 mm 1 mps 746 mmHg 73%
    07:00 +19°C° 0 mm 2 mps 746 mmHg 69%
    08:00 +20°C° 0 mm 2 mps 746 mmHg 63%
    09:00 +21°C° 0 mm 2 mps 747 mmHg 57%
    10:00 +24°C° 0 mm 2 mps 747 mmHg 51%
    11:00 +24°C° 0 mm 2 mps 747 mmHg 49%
    12:00 +25°C° 0 mm 2 mps 747 mmHg 48%
    13:00 +25°C° 0 mm 2 mps 747 mmHg 46%
    14:00 +25°C° 0 mm 3 mps 747 mmHg 50%
    15:00 +23°C° 0 mm 4 mps 747 mmHg 55%
    16:00 +23°C° 0 mm 5 mps 746 mmHg 60%
    17:00 +22°C° 0 mm 5 mps 746 mmHg 64%
    18:00 +21°C° 0 mm 5 mps 746 mmHg 68%
    19:00 +20°C° 0 mm 5 mps 746 mmHg 72%
    20:00 +19°C° 0 mm 5 mps 746 mmHg 75%
    21:00 +17°C° 0 mm 5 mps 746 mmHg 77%
    22:00 +17°C° 0 mm 4 mps 746 mmHg 80%
    23:00 +17°C° 0 mm 4 mps 745 mmHg 80%

    Day after tomorrow, 3 June, Wednesday

    Time Temperature Precipitation Wind Pressure Humidity
    00:00 +17°C° 0 mm 4 mps 745 mmHg 81%
    01:00 +17°C° 0 mm 4 mps 745 mmHg 81%
    02:00 +15°C° 0 mm 4 mps 745 mmHg 80%
    03:00 +15°C° 0 mm 4 mps 745 mmHg 79%
    04:00 +15°C° 0 mm 4 mps 745 mmHg 78%
    05:00 +15°C° 0 mm 4 mps 745 mmHg 76%
    06:00 +17°C° 0 mm 4 mps 745 mmHg 74%
    07:00 +17°C° 0 mm 5 mps 744 mmHg 73%
    08:00 +20°C° 0 mm 5 mps 744 mmHg 67%
    09:00 +22°C° 0 mm 5 mps 744 mmHg 62%
    10:00 +23°C° 0 mm 5 mps 744 mmHg 57%
    11:00 +25°C° 0 mm 5 mps 744 mmHg 53%
    12:00 +26°C° 0 mm 6 mps 744 mmHg 50%
    13:00 +27°C° 0 mm 6 mps 744 mmHg 47%
    14:00 +27°C° 0 mm 6 mps 744 mmHg 48%
    15:00 +27°C° 0 mm 6 mps 744 mmHg 48%
    16:00 +28°C° 0 mm 6 mps 744 mmHg 48%
    17:00 +27°C° 0 mm 5 mps 744 mmHg 53%
    18:00 +26°C° 0 mm 5 mps 743 mmHg 58%
    19:00 +25°C° 0 mm 5 mps 743 mmHg 63%
    20:00 +22°C° 0 mm 5 mps 743 mmHg 67%
    21:00 +21°C° 0 mm 6 mps 743 mmHg 71%
    22:00 +19°C° 0 mm 6 mps 743 mmHg 74%
    23:00 +19°C° 0 mm 6 mps 742 mmHg 76%

    4 June, Thursday

    Time Temperature Precipitation Wind Pressure Humidity
    00:00 +17°C° 0 mm 6 mps 742 mmHg 78%
    01:00 +16°C° 0 mm 6 mps 742 mmHg 80%
    02:00 +16°C° 0 mm 6 mps 742 mmHg 82%
    03:00 +16°C° 0 mm 6 mps 742 mmHg 85%
    04:00 +15°C° 0 mm 5 mps 741 mmHg 87%
    05:00 +16°C° 0.1 mm 6 mps 741 mmHg 82%
    06:00 +17°C° 0.1 mm 6 mps 741 mmHg 77%
    07:00 +19°C° 0.1 mm 6 mps 741 mmHg 71%
    08:00 +20°C° 0.4 mm 6 mps 741 mmHg 69%
    09:00 +21°C° 0.4 mm 6 mps 741 mmHg 67%
    10:00 +22°C° 0.4 mm 6 mps 741 mmHg 64%
    11:00 +23°C° 0 mm 6 mps 741 mmHg 62%
    12:00 +24°C° 0 mm 7 mps 741 mmHg 60%
    13:00 +24°C° 0 mm 7 mps 742 mmHg 57%
    14:00 +24°C° 0 mm 7 mps 742 mmHg 60%
    15:00 +23°C° 0 mm 8 mps 742 mmHg 63%
    16:00 +23°C° 0 mm 8 mps 742 mmHg 66%
    17:00 +22°C° 0 mm 8 mps 742 mmHg 68%
    18:00 +21°C° 0 mm 8 mps 742 mmHg 71%
    19:00 +20°C° 0 mm 7 mps 742 mmHg 73%
    20:00 +20°C° 0 mm 7 mps 742 mmHg 72%
    21:00 +18°C° 0 mm 7 mps 743 mmHg 70%
    22:00 +19°C° 0 mm 6 mps 743 mmHg 69%
    23:00 +19°C° 0 mm 6 mps 743 mmHg 65%

    5 June, Friday

    Time Temperature Precipitation Wind Pressure Humidity
    00:00 +19°C° 0 mm 6 mps 743 mmHg 62%
    01:00 +19°C° 0 mm 6 mps 743 mmHg 59%
    02:00 +18°C° 0 mm 7 mps 743 mmHg 58%
    03:00 +18°C° 0 mm 7 mps 743 mmHg 57%
    04:00 +18°C° 0 mm 7 mps 743 mmHg 56%
    05:00 +17°C° 0.1 mm 7 mps 744 mmHg 58%
    06:00 +17°C° 0.1 mm 7 mps 744 mmHg 60%
    07:00 +16°C° 0.1 mm 7 mps 744 mmHg 62%
    08:00 +17°C° 0 mm 7 mps 745 mmHg 61%
    09:00 +18°C° 0 mm 7 mps 745 mmHg 60%
    10:00 +18°C° 0 mm 7 mps 745 mmHg 59%
    11:00 +20°C° 0.1 mm 7 mps 745 mmHg 59%
    12:00 +20°C° 0.1 mm 7 mps 746 mmHg 59%
    13:00 +21°C° 0.1 mm 7 mps 746 mmHg 58%
    14:00 +21°C° 0.2 mm 7 mps 746 mmHg 59%
    15:00 +21°C° 0.2 mm 7 mps 746 mmHg 59%
    16:00 +21°C° 0.2 mm 6 mps 746 mmHg 59%
    17:00 +20°C° 0 mm 7 mps 746 mmHg 60%
    18:00 +18°C° 0 mm 7 mps 746 mmHg 61%
    19:00 +17°C° 0 mm 7 mps 746 mmHg 63%
    20:00 +17°C° 0 mm 7 mps 746 mmHg 61%
    21:00 +17°C° 0 mm 7 mps 746 mmHg 59%
    22:00 +17°C° 0 mm 7 mps 746 mmHg 57%
    23:00 +16°C° 0.1 mm 6 mps 746 mmHg 59%

    6 June, Saturday

    Time Temperature Precipitation Wind Pressure Humidity
    00:00 +16°C° 0.1 mm 6 mps 746 mmHg 62%
    01:00 +15°C° 0.1 mm 5 mps 746 mmHg 64%
    02:00 +15°C° 0.3 mm 5 mps 746 mmHg 69%
    03:00 +14°C° 0.3 mm 4 mps 746 mmHg 73%
    04:00 +14°C° 0.3 mm 4 mps 746 mmHg 78%
    05:00 +14°C° 0.2 mm 4 mps 746 mmHg 80%
    06:00 +13°C° 0.2 mm 4 mps 746 mmHg 82%
    07:00 +13°C° 0.2 mm 4 mps 746 mmHg 83%
    08:00 +14°C° 0.5 mm 4 mps 746 mmHg 84%
    09:00 +14°C° 0.5 mm 4 mps 746 mmHg 84%
    10:00 +16°C° 0.5 mm 3 mps 746 mmHg 85%
    11:00 +17°C° 0 mm 3 mps 746 mmHg 81%
    12:00 +18°C° 0 mm 3 mps 747 mmHg 76%
    13:00 +19°C° 0 mm 3 mps 747 mmHg 72%
    14:00 +19°C° 0.6 mm 3 mps 747 mmHg 71%
    15:00 +20°C° 0.6 mm 3 mps 747 mmHg 70%
    16:00 +20°C° 0.6 mm 3 mps 747 mmHg 69%
    17:00 +20°C° 1 mm 3 mps 747 mmHg 72%
    18:00 +19°C° 1 mm 3 mps 747 mmHg 75%
    19:00 +19°C° 1 mm 3 mps 747 mmHg 78%
    20:00 +17°C° 0 mm 3 mps 747 mmHg 83%
    21:00 +16°C° 0 mm 3 mps 747 mmHg 88%
    22:00 +13°C° 0 mm 3 mps 747 mmHg 93%
    23:00 +13°C° 0 mm 3 mps 747 mmHg 93%
    Show more